Weather in Shakhter

Russia / Kemerovo Oblast     55°48′51″N   85°07′42″E
temp.,
°C
wind,
m/s
gust,
m/s
humid.,
%
clouds,
%
prec.,
mm/h
press.,
hPa
HPBL,
m
13 june, sun
sun1301:00+9wnw117119 0.0 101610
04:00+7wnw117721 0.0 101510
07:00+10w2271100 0.0 101584
10:00+13wnw247494 0.0 1015265
13:00+15w3674100 0.0 1015632
16:00+15wnw5882100 0.1 1014759
19:00+14wnw369286 0.3 1015494
22:00+12nnw359696 0.5 1016103
14 june, mon
mon1401:00+10nnw23975 0.5 101745
04:00+9n239734 0.0 101851
07:00+11nne36900 0.0 1019230
10:00+15n4559100 0.0 1020981
13:00+18nnw344674 0.0 10201722
16:00+20nnw45445 0.0 10191966
19:00+19nw366220 0.0 1019427
22:00+15ese116994 0.0 101912
15 june, tue
tue1501:00+12sw227412 0.0 101911
04:00+10w228598 0.0 101911
07:00+13wsw247997 0.0 1019110
10:00+17wsw357295 0.0 1018382
13:00+21wsw45665 0.0 1017972
16:00+23wsw566213 0.1 10151119
19:00+20wsw8128185 1.9 1015391
22:00+14ssw12917 1.0 101551
16 june, wed
wed1601:00+13s229394 2.3 101526
04:00+12wsw239310 0.0 101537
07:00+15ssw258947 0.0 1015165
10:00+20sw45777 0.0 1015539
13:00+23sw55635 0.1 10141216
16:00+24wsw455952 0.0 10131503
19:00+23sw367796 0.5 1012586
22:00+17sw2389100 2.4 101239
17 june, thu
thu1701:00+16ssw379484 5.4 1011120
04:00+15sw34955 0.6 101186
07:00+17sw36945 0.6 1011203
10:00+21wsw458132 0.7 1010458
13:00+23wsw457348 4.8 1010935
16:00+24wsw456798 0.5 1009976
19:00+21wsw4982100 2.9 1008250
22:00+18s228695 0.4 100717